period_start,C,m1,H,J0,J1,J2,J3,J4,J5,JA,JB,JC,JD,JJ,JK,JN,#
2014-02-23 00:00:47,0.36,3.78,0.00,17.56,23.42,26.60,6.29,31.83,1027.36,2052.02,2292.10,2383.20,2588.47,350.26,333.76,13.62,0000 0000 0000 0000 000000
2014-02-23 00:01:47,0.32,3.78,0.00,17.55,23.42,26.60,6.28,31.79,1027.36,2052.00,2291.52,2382.91,2588.17,350.23,333.74,13.63,0000 0000 0000 0000 000000
2014-02-23 00:02:47,0.31,3.79,0.00,17.56,23.42,26.56,6.27,31.58,1027.36,2052.01,2291.17,2382.38,2587.80,350.80,334.28,13.63,0000 0000 0000 0000 000000
2014-02-23 00:03:48,0.32,3.79,0.00,17.57,23.42,26.62,6.23,31.92,1027.36,2052.00,2290.64,2382.12,2587.33,350.26,333.76,13.64,0000 0000 0000 0000 000000
2014-02-23 00:04:48,0.29,3.79,0.00,17.55,23.42,26.61,6.32,31.83,1027.35,2052.00,2290.24,2381.68,2586.97,350.32,333.83,13.64,0000 0000 0000 0000 000000
2014-02-23 00:05:48,0.36,3.79,0.00,17.54,23.42,26.57,6.29,31.88,1027.35,2052.00,2289.66,2381.24,2586.41,350.07,333.60,13.65,0000 0000 0000 0000 000000
2014-02-23 00:06:48,0.37,3.79,0.00,17.54,23.42,26.52,6.34,31.58,1027.35,2052.01,2289.19,2380.95,2586.09,350.31,333.83,13.66,0000 0000 0000 0000 000000
2014-02-23 00:07:49,0.36,3.80,0.00,17.54,23.42,26.53,6.07,31.67,1027.33,2052.01,2288.55,2380.39,2585.51,349.35,332.57,13.66,0000 0000 0000 0000 000000
2014-02-23 00:08:49,0.40,3.80,0.00,17.54,23.42,26.57,6.25,31.88,1027.34,2052.01,2288.10,2380.11,2585.17,349.95,333.79,13.67,0000 0000 0000 0000 000000
2014-02-23 00:09:49,0.31,3.80,0.00,17.54,23.41,26.59,6.23,31.71,1027.30,2052.00,2287.48,2379.57,2584.72,350.21,333.90,13.67,0000 0000 0000 0000 000000
2014-02-23 00:10:50,0.39,3.80,0.00,17.54,23.41,26.59,6.09,31.75,1027.31,2052.00,2287.11,2379.20,2584.26,350.14,333.63,13.68,0000 0000 0000 0000 000000
2014-02-23 00:11:50,0.32,3.80,0.00,17.53,23.40,26.56,6.17,31.71,1027.31,2052.02,2286.52,2378.94,2583.92,349.49,333.05,13.69,0000 0000 0000 0000 000000
2014-02-23 00:12:50,0.34,3.81,0.00,17.54,23.40,26.48,6.17,31.79,1027.33,2052.03,2286.11,2378.40,2583.37,349.46,333.02,13.69,0000 0000 0000 0000 000000
2014-02-23 00:13:50,0.38,3.81,0.00,17.54,23.40,26.50,6.41,31.79,1027.28,2052.02,2285.49,2378.13,2583.01,350.73,334.34,13.70,0000 0000 0000 0000 000000
2014-02-23 00:14:50,0.32,3.81,0.00,17.54,23.40,26.45,6.38,31.71,1027.21,2052.02,2285.13,2377.66,2582.44,350.32,333.78,13.70,0000 0000 0000 0000 000000
2014-02-23 00:15:51,0.37,3.81,0.00,17.55,23.40,26.52,6.13,31.83,1027.13,2052.02,2284.53,2377.25,2582.12,350.69,334.11,13.71,0000 0000 0000 0000 000000
2014-02-23 00:16:51,0.34,3.82,0.00,17.56,23.40,26.55,6.14,31.58,1027.15,2052.03,2284.05,2376.93,2581.55,349.20,332.69,13.71,0000 0000 0000 0000 000000
2014-02-23 00:17:51,0.41,3.82,0.00,17.55,23.40,26.48,6.40,31.67,1027.05,2052.03,2283.43,2376.39,2581.19,350.10,333.65,13.72,0000 0000 0000 0000 000000
2014-02-23 00:18:51,0.35,3.82,0.00,17.54,23.40,26.50,6.47,31.63,1027.02,2052.01,2283.00,2376.13,2580.69,350.00,333.43,13.73,0000 0000 0000 0000 000000
2014-02-23 00:19:52,0.31,3.82,0.00,17.55,23.39,26.51,6.23,31.58,1027.02,2052.02,2282.42,2375.70,2580.24,349.23,332.68,13.73,0000 0000 0000 0000 000000
2014-02-23 00:20:52,0.38,3.82,0.00,17.56,23.39,26.50,6.34,31.71,1026.99,2052.02,2282.07,2375.25,2579.81,350.25,333.63,13.74,0000 0000 0000 0000 000000
2014-02-23 00:21:52,0.35,3.83,0.00,17.55,23.39,26.48,6.07,31.46,1026.96,2052.04,2281.49,2374.93,2579.32,350.20,333.59,13.74,0000 0000 0000 0000 000000
2014-02-23 00:22:52,0.39,3.83,0.00,17.56,23.38,26.50,6.08,31.67,1026.94,2052.05,2281.10,2374.40,2579.05,349.49,332.90,13.75,0000 0000 0000 0000 000000
2014-02-23 00:23:52,0.30,3.83,0.00,17.55,23.38,26.53,6.08,31.50,1026.92,2052.04,2280.49,2374.12,2578.50,349.32,332.73,13.76,0000 0000 0000 0000 000000
2014-02-23 00:24:53,0.34,3.83,0.00,17.56,23.37,26.46,6.40,31.71,1026.94,2052.07,2280.06,2373.72,2578.17,348.81,332.24,13.76,0000 0000 0000 0000 000000
2014-02-23 00:25:53,0.37,3.83,0.00,17.56,23.37,26.49,6.30,31.63,1026.93,2052.06,2279.46,2373.27,2577.78,350.85,334.19,13.77,0000 0000 0000 0000 000000
2014-02-23 00:26:53,0.36,3.84,0.00,17.54,23.37,26.48,6.22,31.79,1026.94,2052.04,2278.89,2373.00,2577.29,349.96,333.36,13.77,0000 0000 0000 0000 000000
2014-02-23 00:27:53,0.34,3.84,0.00,17.54,23.37,26.50,6.32,31.83,1026.91,2052.05,2278.35,2372.47,2577.03,350.08,333.47,13.78,0000 0000 0000 0000 000000
2014-02-23 00:28:53,0.34,3.84,0.00,17.53,23.37,26.50,6.10,31.67,1026.92,2052.10,2278.03,2372.16,2576.55,349.54,332.59,13.79,0000 0000 0000 0000 000000
2014-02-23 00:29:54,0.33,3.84,0.00,17.53,23.37,26.50,6.28,31.67,1026.94,2052.09,2277.45,2371.86,2576.19,350.37,333.38,13.79,0000 0000 0000 0000 000000
2014-02-23 00:30:54,0.35,3.84,0.00,17.54,23.37,26.50,6.35,31.67,1026.92,2052.17,2277.06,2371.34,2575.71,350.71,334.08,13.80,0000 0000 0000 0000 000000
2014-02-23 00:31:54,0.43,3.85,0.00,17.54,23.37,26.47,6.16,31.79,1026.93,2052.19,2276.46,2371.08,2575.26,350.01,333.41,13.80,0000 0000 0000 0000 000000
2014-02-23 00:32:54,0.32,3.85,0.00,17.54,23.37,26.47,6.05,31.75,1026.98,2052.15,2276.09,2370.57,2574.91,349.02,332.47,13.81,0000 0000 0000 0000 000000
2014-02-23 00:33:55,0.35,3.85,0.00,17.54,23.37,26.46,6.35,31.71,1026.99,2052.12,2275.52,2370.20,2574.37,349.88,333.30,13.81,0000 0000 0000 0000 000000
2014-02-23 00:34:55,0.28,3.85,0.00,17.54,23.37,26.40,6.13,31.42,1027.01,2052.17,2275.12,2369.93,2574.07,349.82,332.97,13.82,0000 0000 0000 0000 000000
2014-02-23 00:35:55,0.37,3.86,0.00,17.53,23.37,26.42,6.38,31.83,1026.97,2052.16,2274.49,2369.41,2573.51,350.57,334.63,13.83,0000 0000 0000 0000 000000
2014-02-23 00:36:55,0.36,3.86,0.00,17.54,23.36,26.45,6.37,31.83,1026.97,2052.08,2274.01,2369.14,2573.18,351.38,334.74,13.83,0000 0000 0000 0000 000000
2014-02-23 00:37:56,0.23,3.86,0.00,17.52,23.36,26.41,6.11,31.71,1026.95,2052.07,2273.39,2368.65,2572.71,349.50,332.86,13.84,0000 0000 0000 0000 000000
2014-02-23 00:38:56,0.44,3.86,0.00,17.53,23.35,26.42,6.26,31.67,1026.96,2052.26,2273.01,2368.24,2572.26,350.10,333.52,13.84,0000 0000 0000 0000 000000
2014-02-23 00:39:56,0.51,3.86,0.00,17.54,23.35,26.45,6.48,31.83,1027.01,2052.26,2272.43,2368.05,2572.05,351.10,334.47,13.85,0000 0000 0000 0000 000000
2014-02-23 00:40:56,0.24,3.87,0.00,17.54,23.35,26.44,6.04,31.42,1026.93,2052.27,2272.13,2367.59,2571.53,349.00,332.08,13.86,0000 0000 0000 0000 000000
2014-02-23 00:41:56,0.36,3.87,0.00,17.54,23.35,26.45,6.43,31.67,1026.93,2052.32,2271.57,2367.22,2571.18,350.80,334.17,13.86,0000 0000 0000 0000 000000
2014-02-23 00:42:56,0.36,3.87,0.00,17.54,23.35,26.46,6.40,31.67,1026.92,2052.29,2271.05,2367.02,2570.71,350.77,334.37,13.87,0000 0000 0000 0000 000000
2014-02-23 00:43:57,0.33,3.87,0.00,17.54,23.35,26.48,6.15,31.58,1026.90,2052.29,2270.42,2366.50,2570.25,350.74,334.09,13.87,0000 0000 0000 0000 000000
2014-02-23 00:44:57,0.37,3.87,0.00,17.54,23.35,26.47,6.47,31.71,1026.92,2052.29,2269.93,2366.18,2569.96,351.52,334.84,13.88,0000 0000 0000 0000 000000
2014-02-23 00:45:57,0.34,3.88,0.00,17.54,23.35,26.48,6.53,31.67,1026.90,2052.49,2269.37,2365.91,2569.42,350.53,333.89,13.88,0000 0000 0000 0000 000000
2014-02-23 00:46:57,0.51,3.88,0.00,17.54,23.35,26.47,6.05,31.50,1026.91,2052.62,2268.98,2365.37,2569.13,349.34,332.77,13.89,0000 0000 0000 0000 000000
2014-02-23 00:47:58,0.50,3.88,0.00,17.54,23.35,26.55,6.32,31.50,1026.91,2052.59,2268.41,2365.10,2568.65,349.89,333.29,13.90,0000 0000 0000 0000 000000
2014-02-23 00:48:58,0.26,3.88,0.00,17.54,23.34,26.54,6.15,31.71,1026.91,2052.48,2267.95,2364.61,2568.23,349.23,332.66,13.90,0000 0000 0000 0000 000000
2014-02-23 00:49:58,0.29,3.89,0.00,17.54,23.34,26.49,6.01,31.75,1026.93,2052.60,2267.37,2364.22,2567.91,349.15,332.58,13.91,0000 0000 0000 0000 000000
2014-02-23 00:50:58,0.44,3.89,0.00,17.54,23.34,26.51,6.28,31.75,1026.95,2052.60,2267.01,2363.98,2567.37,350.24,333.63,13.91,0000 0000 0000 0000 000000
2014-02-23 00:51:58,0.33,3.89,0.00,17.54,23.33,26.47,6.30,32.00,1026.93,2052.63,2266.42,2363.50,2567.08,350.06,333.46,13.92,0000 0000 0000 0000 000000
2014-02-23 00:52:59,0.37,3.89,0.00,17.54,23.33,26.42,6.13,31.96,1026.89,2052.70,2266.08,2363.18,2566.53,349.51,332.93,13.93,0000 0000 0000 0000 000000
2014-02-23 00:53:59,0.40,3.89,0.00,17.54,23.32,26.41,6.27,31.71,1026.92,2052.77,2265.52,2362.85,2566.18,350.37,333.74,13.93,0000 0000 0000 0000 000000
2014-02-23 00:54:59,0.39,3.90,0.00,17.54,23.32,26.45,6.26,31.71,1026.91,2052.82,2265.18,2362.35,2565.76,349.63,333.04,13.94,0000 0000 0000 0000 000000
2014-02-23 00:55:59,0.41,3.90,0.00,17.56,23.32,26.47,6.09,31.42,1026.91,2052.87,2264.84,2362.10,2565.29,349.25,332.43,13.94,0000 0000 0000 0000 000000
2014-02-23 00:57:00,0.30,3.90,0.00,17.57,23.32,26.42,6.03,31.79,1026.91,2052.89,2264.32,2361.56,2564.84,349.99,333.36,13.95,0000 0000 0000 0000 000000
2014-02-23 00:58:00,0.43,3.90,0.00,17.56,23.32,26.45,6.19,31.83,1026.92,2052.82,2263.74,2361.20,2564.35,349.58,332.96,13.96,0000 0000 0000 0000 000000
2014-02-23 00:59:00,0.31,3.91,0.00,17.56,23.32,26.45,6.13,31.88,1026.94,2052.89,2263.25,2360.97,2564.11,350.00,333.50,13.96,0000 0000 0000 0000 000000
2014-02-23 01:00:00,0.31,3.91,0.00,17.57,23.32,26.47,6.23,31.83,1026.91,2052.87,2262.62,2360.43,2563.60,350.07,333.43,13.97,0000 0000 0000 0000 000000
2014-02-23 01:01:00,0.45,3.91,0.00,17.57,23.32,26.45,6.22,31.96,1026.91,2052.87,2262.08,2360.14,2563.20,349.84,333.20,13.97,0000 0000 0000 0000 000000
2014-02-23 01:02:01,0.30,3.91,0.00,17.57,23.32,26.47,6.33,31.88,1026.94,2052.81,2261.45,2359.69,2562.90,351.34,334.65,13.98,0000 0000 0000 0000 000000
2014-02-23 01:03:01,0.34,3.91,0.00,17.57,23.32,26.48,6.13,31.75,1026.93,2052.78,2261.05,2359.25,2562.38,349.24,332.63,13.98,0000 0000 0000 0000 000000
2014-02-23 01:04:01,0.31,3.92,0.00,17.58,23.32,26.46,6.12,31.96,1026.93,2052.78,2260.45,2358.98,2562.10,350.00,333.18,13.99,0000 0000 0000 0000 000000
2014-02-23 01:05:01,0.33,3.92,0.00,17.59,23.32,26.43,6.21,31.88,1026.94,2052.88,2260.11,2358.45,2561.59,350.06,333.40,14.00,0000 0000 0000 0000 000000
2014-02-23 01:06:02,0.47,3.92,0.00,17.59,23.32,26.44,6.33,31.92,1026.96,2052.87,2259.53,2358.15,2561.19,349.36,332.59,14.00,0000 0000 0000 0000 000000
2014-02-23 01:07:02,0.30,3.92,0.00,17.59,23.32,26.46,6.02,31.79,1026.89,2052.90,2259.06,2357.77,2560.80,349.21,332.58,14.01,0000 0000 0000 0000 000000
2014-02-23 01:08:02,0.38,3.92,0.00,17.59,23.32,26.43,6.17,31.88,1026.95,2052.91,2258.46,2357.30,2560.31,349.31,332.68,14.01,0000 0000 0000 0000 000000
2014-02-23 01:09:02,0.40,3.93,0.00,17.59,23.32,26.45,6.09,31.79,1027.01,2052.93,2258.02,2357.04,2560.00,348.80,332.22,14.02,0000 0000 0000 0000 000000
2014-02-23 01:10:03,0.26,3.93,0.00,17.59,23.32,26.44,6.32,31.96,1026.95,2052.93,2257.44,2356.56,2559.49,349.80,333.15,14.03,0000 0000 0000 0000 000000
2014-02-23 01:11:03,0.47,3.93,0.00,17.59,23.32,26.42,6.09,31.96,1026.93,2052.87,2257.02,2356.20,2559.17,350.33,333.65,14.03,0000 0000 0000 0000 000000
2014-02-23 01:12:03,0.18,3.93,0.00,17.59,23.32,26.39,6.34,32.08,1026.93,2052.86,2256.42,2355.87,2558.99,350.18,333.51,14.04,0000 0000 0000 0000 000000
2014-02-23 01:13:03,0.35,3.93,0.00,17.59,23.32,26.41,6.23,31.96,1026.93,2052.88,2256.04,2355.36,2558.50,349.97,333.31,14.04,0000 0000 0000 0000 000000
2014-02-23 01:14:04,0.39,3.94,0.00,17.61,23.32,26.39,6.14,32.08,1026.92,2052.90,2255.46,2355.12,2558.16,349.04,332.41,14.05,0000 0000 0000 0000 000000
2014-02-23 01:15:04,0.31,3.94,0.00,17.62,23.32,26.40,6.25,31.83,1026.91,2052.93,2255.08,2354.65,2557.74,350.23,333.52,14.05,0000 0000 0000 0000 000000
2014-02-23 01:16:04,0.38,3.94,0.00,17.62,23.32,26.38,6.20,31.96,1026.89,2052.94,2254.50,2354.24,2557.29,349.43,332.75,14.06,0000 0000 0000 0000 000000
2014-02-23 01:17:04,0.39,3.94,0.00,17.62,23.32,26.42,6.17,32.00,1026.91,2052.95,2254.15,2354.00,2556.99,349.66,332.84,14.07,0000 0000 0000 0000 000000
2014-02-23 01:18:04,0.19,3.94,0.00,17.62,23.32,26.42,6.26,31.96,1026.90,2052.97,2253.59,2353.47,2556.44,350.42,333.71,14.07,0000 0000 0000 0000 000000
2014-02-23 01:19:05,0.54,3.95,0.00,17.62,23.32,26.39,6.29,32.00,1026.90,2052.96,2253.17,2353.15,2556.11,350.14,333.61,14.08,0000 0000 0000 0000 000000
2014-02-23 01:20:05,0.22,3.95,0.00,17.62,23.32,26.40,6.20,32.00,1026.88,2052.94,2252.59,2352.70,2555.53,350.26,333.79,14.08,0000 0000 0000 0000 000000
2014-02-23 01:21:05,0.46,3.95,0.00,17.62,23.32,26.40,6.23,31.75,1026.89,2052.93,2252.19,2352.27,2555.19,349.62,332.93,14.09,0000 0000 0000 0000 000000
2014-02-23 01:22:06,0.27,3.95,0.00,17.62,23.32,26.38,6.33,31.88,1026.88,2052.95,2251.65,2352.01,2554.76,350.28,333.56,14.10,0000 0000 0000 0000 000000
2014-02-23 01:23:06,0.38,3.95,0.00,17.62,23.32,26.39,6.23,31.88,1026.94,2052.93,2251.23,2351.51,2554.28,349.16,332.51,14.10,0000 0000 0000 0000 000000
2014-02-23 01:24:06,0.33,3.96,0.00,17.62,23.32,26.43,6.29,31.96,1026.93,2052.94,2250.71,2351.18,2553.88,350.25,333.79,14.11,0000 0000 0000 0000 000000
2014-02-23 01:25:06,0.36,3.96,0.00,17.62,23.32,26.41,6.23,31.88,1026.92,2052.94,2250.25,2350.85,2553.36,350.07,333.60,14.11,0000 0000 0000 0000 000000
2014-02-23 01:26:07,0.36,3.96,0.00,17.62,23.32,26.44,6.37,31.88,1026.91,2052.96,2249.77,2350.36,2553.08,349.98,333.28,14.12,0000 0000 0000 0000 000000
2014-02-23 01:27:07,0.35,3.96,0.00,17.62,23.32,26.43,6.40,31.54,1026.90,2052.97,2249.27,2350.08,2552.54,350.25,333.54,14.12,0000 0000 0000 0000 000000
2014-02-23 01:28:07,0.31,3.96,0.00,17.64,23.32,26.42,6.03,31.88,1026.88,2052.93,2248.71,2349.55,2552.20,348.97,332.01,14.13,0000 0000 0000 0000 000000
2014-02-23 01:29:07,0.40,3.97,0.00,17.64,23.32,26.39,6.36,31.96,1026.88,2052.93,2248.23,2349.19,2551.76,350.28,333.53,14.14,0000 0000 0000 0000 000000
2014-02-23 01:30:07,0.30,3.97,0.00,17.64,23.32,26.39,6.04,31.96,1026.88,2052.94,2247.68,2348.82,2551.29,349.50,332.79,14.14,0000 0000 0000 0000 000000
2014-02-23 01:31:08,0.43,3.97,0.00,17.65,23.32,26.43,6.23,31.88,1026.88,2052.94,2247.19,2348.31,2550.97,350.48,333.72,14.15,0000 0000 0000 0000 000000
2014-02-23 01:32:08,0.33,3.97,0.00,17.67,23.32,26.40,6.14,31.92,1026.88,2052.92,2246.56,2348.05,2550.40,349.82,333.07,14.15,0000 0000 0000 0000 000000
2014-02-23 01:33:08,0.35,3.98,0.00,17.67,23.32,26.42,6.23,31.79,1026.89,2052.93,2246.19,2347.57,2550.11,350.15,333.39,14.16,0000 0000 0000 0000 000000
2014-02-23 01:34:08,0.36,3.98,0.00,17.67,23.32,26.40,6.17,31.63,1026.89,2052.90,2245.64,2347.20,2549.59,349.72,332.97,14.17,0000 0000 0000 0000 000000
2014-02-23 01:35:09,0.35,3.98,0.00,17.67,23.32,26.41,6.13,31.71,1026.88,2052.89,2245.20,2346.94,2549.21,349.84,333.08,14.17,0000 0000 0000 0000 000000
2014-02-23 01:36:09,0.26,3.98,0.00,17.67,23.32,26.41,6.15,31.79,1026.88,2052.90,2244.63,2346.41,2548.74,350.26,333.31,14.18,0000 0000 0000 0000 000000
2014-02-23 01:37:09,0.46,3.98,0.00,17.67,23.32,26.39,6.24,31.88,1026.87,2052.90,2244.16,2346.11,2548.28,349.98,333.21,14.18,0000 0000 0000 0000 000000
2014-02-23 01:38:09,0.30,3.99,0.00,17.67,23.32,26.42,6.31,31.67,1026.87,2052.94,2243.54,2345.63,2547.99,350.23,333.63,14.19,0000 0000 0000 0000 000000
2014-02-23 01:39:09,0.46,3.99,0.00,17.67,23.32,26.36,6.09,31.75,1026.87,2052.93,2243.15,2345.23,2547.44,350.23,333.76,14.19,0000 0000 0000 0000 000000
2014-02-23 01:40:09,0.32,3.99,0.00,17.67,23.32,26.36,6.36,32.00,1026.87,2052.96,2242.57,2344.96,2547.15,350.25,333.47,14.20,0000 0000 0000 0000 000000
2014-02-23 01:41:10,0.34,3.99,0.00,17.67,23.32,26.38,6.07,31.79,1026.87,2052.96,2242.13,2344.42,2546.68,350.02,333.55,14.21,0000 0000 0000 0000 000000
2014-02-23 01:42:10,0.41,3.99,0.00,17.68,23.32,26.39,6.26,31.83,1026.87,2052.94,2241.51,2344.09,2546.24,349.69,332.93,14.21,0000 0000 0000 0000 000000
2014-02-23 01:43:10,0.33,4.00,0.00,17.68,23.32,26.38,6.38,31.96,1026.87,2052.93,2241.10,2343.59,2545.80,350.56,333.75,14.22,0000 0000 0000 0000 000000
2014-02-23 01:44:10,0.39,4.00,0.00,17.69,23.32,26.38,6.09,32.04,1026.87,2052.92,2240.49,2343.22,2545.31,349.55,332.79,14.22,0000 0000 0000 0000 000000
2014-02-23 01:45:11,0.36,4.00,0.00,17.69,23.32,26.35,6.14,31.92,1026.87,2052.92,2240.07,2342.91,2545.00,350.06,333.26,14.23,0000 0000 0000 0000 000000
2014-02-23 01:46:11,0.26,4.00,0.00,17.69,23.32,26.40,6.32,32.04,1026.87,2052.91,2239.53,2342.36,2544.43,349.75,332.96,14.24,0000 0000 0000 0000 000000
2014-02-23 01:47:11,0.48,4.01,0.00,17.69,23.32,26.38,6.22,31.92,1026.88,2052.92,2239.19,2342.08,2544.08,350.03,333.71,14.24,0000 0000 0000 0000 000000
2014-02-23 01:48:12,0.22,4.01,0.00,17.69,23.32,26.38,6.11,32.00,1026.87,2052.93,2238.79,2341.57,2543.48,350.05,333.48,14.25,0000 0000 0000 0000 000000
2014-02-23 01:49:12,0.46,4.01,0.00,17.70,23.33,26.41,6.02,31.79,1026.87,2052.94,2238.31,2341.20,2543.10,349.41,332.64,14.25,0000 0000 0000 0000 000000
2014-02-23 01:50:12,0.34,4.01,0.00,17.69,23.33,26.36,6.24,32.08,1026.87,2052.93,2238.00,2340.87,2542.53,350.25,333.19,14.26,0000 0000 0000 0000 000000
2014-02-23 01:51:12,0.28,4.01,0.00,17.69,23.33,26.39,6.21,31.71,1026.87,2052.90,2237.47,2340.35,2542.18,350.36,333.54,14.27,0000 0000 0000 0000 000000
2014-02-23 01:52:13,0.40,4.02,0.00,17.69,23.33,26.39,6.23,31.88,1026.87,2052.88,2236.80,2340.09,2541.64,349.58,332.80,14.27,0000 0000 0000 0000 000000
2014-02-23 01:53:13,0.37,4.02,0.00,17.70,23.34,26.44,6.19,31.79,1026.87,2052.84,2236.28,2339.57,2541.23,350.02,333.23,14.28,0000 0000 0000 0000 000000
2014-02-23 01:54:13,0.35,4.02,0.00,17.71,23.34,26.41,6.13,31.79,1026.87,2052.86,2235.78,2339.20,2540.88,350.07,333.26,14.28,0000 0000 0000 0000 000000
2014-02-23 01:55:13,0.37,4.02,0.00,17.72,23.34,26.40,6.18,31.88,1026.87,2052.89,2235.29,2338.84,2540.34,349.79,332.97,14.29,0000 0000 0000 0000 000000
2014-02-23 01:56:14,0.37,4.02,0.00,17.72,23.34,26.38,6.20,31.79,1026.87,2052.91,2234.88,2338.34,2540.02,349.69,332.88,14.29,0000 0000 0000 0000 000000
2014-02-23 01:57:14,0.37,4.03,0.00,17.72,23.34,26.39,6.33,31.71,1026.87,2052.89,2234.33,2338.09,2539.48,350.66,333.80,14.30,0000 0000 0000 0000 000000
2014-02-23 01:58:14,0.34,4.03,0.00,17.72,23.34,26.40,6.37,31.79,1026.87,2052.87,2233.73,2337.57,2539.13,350.50,333.67,14.31,0000 0000 0000 0000 000000
2014-02-23 01:59:14,0.39,4.03,0.00,17.74,23.34,26.40,6.27,31.92,1026.87,2052.76,2233.23,2337.20,2538.59,350.40,333.39,14.31,0000 0000 0000 0000 000000
2014-02-23 02:00:15,0.28,4.03,0.00,17.74,23.34,26.37,6.02,31.83,1026.87,2052.71,2232.62,2336.77,2538.21,349.40,332.39,14.32,0000 0000 0000 0000 000000
2014-02-23 02:01:15,0.39,4.03,0.00,17.74,23.34,26.39,6.11,31.88,1026.87,2052.70,2232.19,2336.29,2537.82,349.71,332.73,14.32,0000 0000 0000 0000 000000
2014-02-23 02:02:15,0.33,4.04,0.00,17.76,23.34,26.39,6.15,31.71,1026.87,2052.72,2231.59,2335.99,2537.31,349.58,332.74,14.33,0000 0000 0000 0000 000000
2014-02-23 02:03:15,0.36,4.04,0.00,17.77,23.34,26.37,6.11,31.67,1026.87,2052.67,2231.13,2335.43,2536.91,349.53,332.36,14.34,0000 0000 0000 0000 000000
2014-02-23 02:04:15,0.36,4.04,0.00,17.77,23.34,26.39,6.02,31.79,1026.87,2052.67,2230.49,2335.15,2536.39,348.96,332.30,14.34,0000 0000 0000 0000 000000
2014-02-23 02:05:15,0.38,4.04,0.00,17.77,23.34,26.40,6.34,31.63,1026.87,2052.63,2230.03,2334.70,2536.10,350.82,333.55,14.35,0000 0000 0000 0000 000000
2014-02-23 02:06:16,0.29,4.04,0.00,17.77,23.34,26.39,6.26,31.75,1026.87,2052.63,2229.42,2334.25,2535.57,350.31,333.43,14.35,0000 0000 0000 0000 000000
2014-02-23 02:07:16,0.43,4.05,0.00,17.77,23.34,26.43,6.05,31.75,1026.87,2052.70,2229.03,2333.93,2535.19,349.07,332.25,14.36,0000 0000 0000 0000 000000
2014-02-23 02:08:16,0.33,4.05,0.00,17.77,23.34,26.41,6.13,31.75,1026.88,2052.66,2228.49,2333.42,2534.74,350.44,333.61,14.36,0000 0000 0000 0000 000000
2014-02-23 02:09:16,0.41,4.05,0.00,17.77,23.34,26.42,6.12,31.67,1026.87,2052.53,2228.04,2333.14,2534.28,350.13,333.63,14.37,0000 0000 0000 0000 000000
2014-02-23 02:10:17,0.22,4.05,0.00,17.77,23.34,26.41,6.27,31.75,1026.87,2052.52,2227.41,2332.64,2533.91,350.37,333.47,14.38,0000 0000 0000 0000 000000
2014-02-23 02:11:17,0.38,4.06,0.00,17.77,23.34,26.37,6.23,31.83,1026.87,2052.54,2226.88,2332.23,2533.37,350.07,333.18,14.38,0000 0000 0000 0000 000000
2014-02-23 02:12:17,0.44,4.06,0.00,17.77,23.34,26.39,6.20,31.83,1026.87,2052.60,2226.34,2331.93,2533.09,350.38,333.46,14.39,0000 0000 0000 0000 000000
2014-02-23 02:13:18,0.33,4.06,0.00,17.77,23.34,26.40,6.11,31.75,1026.87,2052.63,2225.91,2331.38,2532.57,349.69,332.82,14.39,0000 0000 0000 0000 000000
2014-02-23 02:14:18,0.46,4.06,0.00,17.78,23.35,26.40,6.29,31.88,1026.88,2052.76,2225.36,2331.13,2532.20,350.65,333.73,14.40,0000 0000 0000 0000 000000
2014-02-23 02:15:18,0.46,4.07,0.00,17.79,23.35,26.39,6.40,31.75,1026.87,2052.80,2224.99,2330.70,2531.74,350.73,333.79,14.41,0000 0000 0000 0000 000000
2014-02-23 02:16:18,0.36,4.07,0.00,17.79,23.35,26.40,6.18,31.96,1026.87,2052.73,2224.44,2330.25,2531.27,350.54,333.61,14.41,0000 0000 0000 0000 000000
2014-02-23 02:17:19,0.30,4.07,0.00,17.79,23.35,26.38,6.17,31.83,1026.87,2052.67,2224.03,2329.97,2530.86,349.24,332.37,14.42,0000 0000 0000 0000 000000
2014-02-23 02:18:19,0.23,4.07,0.00,17.81,23.35,26.40,6.25,31.75,1026.87,2052.65,2223.44,2329.43,2530.33,350.27,333.34,14.42,0000 0000 0000 0000 000000
2014-02-23 02:19:19,0.47,4.07,0.00,17.81,23.35,26.40,6.37,31.79,1026.87,2052.65,2223.02,2329.13,2529.99,350.78,333.81,14.43,0000 0000 0000 0000 000000
2014-02-23 02:20:20,0.28,4.08,0.00,17.82,23.35,26.39,6.03,31.71,1026.87,2052.45,2222.42,2328.63,2529.42,349.68,332.94,14.43,0000 0000 0000 0000 000000
2014-02-23 02:21:20,0.23,4.08,0.00,17.82,23.35,26.41,6.05,31.88,1026.88,2052.50,2221.90,2328.24,2529.09,349.62,332.70,14.44,0000 0000 0000 0000 000000
2014-02-23 02:22:20,0.46,4.08,0.00,17.82,23.35,26.42,6.23,31.83,1026.87,2052.52,2221.34,2327.97,2528.56,349.86,333.17,14.45,0000 0000 0000 0000 000000
2014-02-23 02:23:21,0.38,4.08,0.00,17.84,23.36,26.40,6.38,31.71,1026.88,2052.55,2220.89,2327.43,2528.21,350.86,333.86,14.45,0000 0000 0000 0000 000000
2014-02-23 02:24:21,0.38,4.08,0.00,17.84,23.37,26.43,6.12,31.75,1026.88,2052.58,2220.34,2327.14,2527.97,349.33,332.61,14.46,0000 0000 0000 0000 000000
2014-02-23 02:25:21,0.34,4.09,0.00,17.85,23.37,26.39,6.22,31.79,1026.88,2052.56,2219.93,2326.70,2527.42,349.73,332.77,14.46,0000 0000 0000 0000 000000
2014-02-23 02:26:22,0.32,4.09,0.00,17.85,23.37,26.41,6.52,31.96,1026.88,2052.42,2219.37,2326.26,2526.93,350.46,332.94,14.47,0000 0000 0000 0000 000000
2014-02-23 02:27:22,0.31,4.09,0.00,17.84,23.37,26.43,6.27,31.83,1026.88,2052.42,2219.05,2326.00,2526.35,350.27,333.55,14.48,0000 0000 0000 0000 000000
2014-02-23 02:28:22,0.28,4.09,0.00,17.84,23.37,26.44,6.18,31.96,1026.88,2052.49,2218.48,2325.47,2526.04,350.14,332.84,14.48,0000 0000 0000 0000 000000
2014-02-23 02:29:23,0.46,4.09,0.00,17.85,23.37,26.42,6.23,31.92,1026.88,2052.66,2218.08,2325.16,2525.46,349.76,332.80,14.49,0000 0000 0000 0000 000000
2014-02-23 02:30:23,0.49,4.10,0.00,17.87,23.37,26.41,6.21,31.79,1026.89,2052.65,2217.47,2324.75,2525.12,349.99,333.01,14.49,0000 0000 0000 0000 000000
2014-02-23 02:31:23,0.36,4.10,0.00,17.87,23.37,26.42,6.23,31.75,1026.87,2052.48,2217.01,2324.27,2524.57,350.36,333.36,14.50,0000 0000 0000 0000 000000
2014-02-23 02:32:23,0.21,4.10,0.00,17.87,23.37,26.39,6.07,31.75,1026.88,2052.29,2216.41,2323.95,2524.18,349.63,332.24,14.51,0000 0000 0000 0000 000000
2014-02-23 02:33:24,0.21,4.10,0.00,17.87,23.37,26.38,6.28,31.75,1026.87,2052.32,2215.96,2323.44,2523.82,350.35,333.34,14.51,0000 0000 0000 0000 000000
2014-02-23 02:34:24,0.43,4.10,0.00,17.88,23.37,26.43,6.38,31.67,1026.87,2052.45,2215.37,2323.15,2523.32,351.08,334.03,14.52,0000 0000 0000 0000 000000
2014-02-23 02:35:24,0.45,4.11,0.00,17.88,23.37,26.38,6.33,31.67,1026.87,2052.46,2215.01,2322.75,2523.04,350.76,333.80,14.52,0000 0000 0000 0000 000000
2014-02-23 02:36:25,0.32,4.11,0.00,17.88,23.37,26.43,6.06,32.04,1026.87,2052.44,2214.44,2322.28,2522.45,350.50,333.05,14.53,0000 0000 0000 0000 000000